This demonstration page uses our WeatherBlox Daily Observations layout. Learn more.

Left ArrowRight Arrow

39.51506, -84.39828

Hourly Observations for March 25, 2016

Temp ( °F °C ) Dew Point ( °F °C ) Humidity (%) Winds ( mph kmh ) Pressure ( in mb ) Visibility ( mi km ) Precip ( " mm )
12:15 am 00:15 Mostly Cloudy 50 10.1 41 5.2 72 72 W 8 13 29.74 1007 10 16 0.00 0.00
12:35 am 00:35 Partly Cloudy 49 9.6 41 5.2 74 74 W 8 13 29.77 1008 10 16 0.00 0.00
12:55 am 00:55 Mostly Cloudy 49 9.6 41 5.1 74 74 W 12 19 29.77 1008 10 16 0.00 0.00
1:15 am 01:15 Cloudy 49 9.6 41 5.1 74 74 W 12 19 29.77 1008 10 16 0.00 0.00
1:35 am 01:35 Cloudy 49 9.6 42 5.6 76 76 WNW 13 20 29.77 1008 10 16 0.00 0.00
1:55 am 01:55 Cloudy 49 9.6 42 5.7 77 77 WNW 10 17 29.80 1009 10 16 0.00 0.00
2:15 am 02:15 Cloudy 49 9.6 41 5.2 74 74 WNW 13 20 29.80 1009 10 16 0.00 0.00
2:35 am 02:35 Cloudy 49 9.6 41 5 73 73 WNW 10 17 29.80 1009 10 16 0.00 0.00
2:55 am 02:55 Cloudy 47 8.2 39 3.8 74 74 WNW 14 22 29.80 1009 10 16 0.00 0.00
3:15 am 03:15 Cloudy 44 6.5 38 3.3 80 80 NW 14 22 29.83 1010 10 16 0.00 0.00
3:35 am 03:35 Cloudy 42 5.8 36 2.3 78 78 WNW 12 19 29.83 1010 10 16 0.00 0.00
3:55 am 03:55 Cloudy 42 5.5 35 1.7 77 77 WNW 14 22 29.85 1011 10 16 0.00 0.00
4:15 am 04:15 Cloudy 42 5.5 35 1.5 76 76 WNW 8 13 29.85 1011 10 16 0.00 0.00
4:35 am 04:35 Cloudy 40 4.7 33 0.7 76 76 NW 15 24 29.85 1011 10 16 0.00 0.00
4:55 am 04:55 Cloudy 40 4.7 32 0.1 72 72 NW 14 22 29.85 1011 10 16 0.00 0.00
5:15 am 05:15 Cloudy 40 4.4 32 -0.1 73 73 WNW 8 13 29.85 1011 10 16 0.00 0.00
5:35 am 05:35 Cloudy 39 4 31 -0.7 72 72 WNW 12 19 29.88 1012 10 16 0.00 0.00
5:55 am 05:55 Cloudy 39 4 31 -0.5 73 73 WNW 10 17 29.88 1012 10 16 0.00 0.00
6:15 am 06:15 Cloudy 39 4 31 -0.8 71 71 WNW 13 20 29.91 1013 10 16 0.00 0.00
6:35 am 06:35 Cloudy 39 4 30 -1.1 70 70 NW 12 19 29.91 1013 10 16 0.00 0.00
6:55 am 06:55 Cloudy 39 4 31 -0.5 73 73 WNW 10 17 29.91 1013 10 16 0.00 0.00
7:15 am 07:15 Cloudy 39 4 31 -0.6 72 72 WNW 10 17 29.94 1014 10 16 0.00 0.00
7:35 am 07:35 Cloudy 39 3.8 30 -1.3 70 70 NW 13 20 29.94 1014 10 16 0.00 0.00
7:55 am 07:55 Cloudy 38 3.4 30 -1.3 72 72 NW 9 15 29.97 1015 10 16 0.00 0.00
8:15 am 08:15 Cloudy 39 3.9 31 -0.6 73 73 NNW 7 11 29.97 1015 10 16 0.00 0.00
8:35 am 08:35 Cloudy 37 3 29 -1.4 73 73 NNW 8 13 30.00 1016 10 16 0.00 0.00
8:55 am 08:55 Cloudy 37 2.6 28 -2 72 72 NNW 12 19 30.03 1017 10 16 0.00 0.00
9:15 am 09:15 Cloudy 37 2.6 28 -2.1 71 71 NNW 10 17 30.03 1017 10 16 0.00 0.00
9:35 am 09:35 Cloudy 37 2.6 28 -2.4 70 70 NNW 8 13 30.06 1018 10 16 0.00 0.00
9:55 am 09:55 Cloudy 37 2.6 28 -2.4 70 70 WNW 9 15 30.06 1018 10 16 0.00 0.00
10:15 am 10:15 Cloudy 37 2.9 29 -1.9 71 71 NNW 9 15 30.06 1018 10 16 0.00 0.00
10:35 am 10:35 Cloudy 37 2.6 27 -2.7 68 68 N 12 19 30.09 1019 10 16 0.00 0.00
10:55 am 10:55 Cloudy 37 2.6 27 -3 67 67 N 13 20 30.09 1019 10 16 0.00 0.00
11:15 am 11:15 Cloudy 37 2.6 26 -3.3 65 65 NNW 6 9 30.12 1020 10 16 0.00 0.00
11:35 am 11:35 Cloudy 37 2.6 26 -3.4 65 65 Calm 30.12 1020 10 16 0.00 0.00
11:55 am 11:55 Cloudy 38 3.1 27 -2.7 66 66 N 6 9 30.12 1020 10 16 0.00 0.00
12:15 pm 12:15 Cloudy 37 3 27 -2.9 66 66 Calm 30.12 1020 10 16 0.00 0.00
12:35 pm 12:35 Cloudy 39 4 29 -1.6 67 67 N 6 9 30.09 1019 10 16 0.00 0.00
12:55 pm 12:55 Cloudy 39 4 28 -2.2 64 64 NNW 6 9 30.12 1020 10 16 0.00 0.00
1:15 pm 13:15 Cloudy 39 4 28 -2.2 64 64 N 7 11 30.12 1020 10 16 0.00 0.00
1:35 pm 13:35 Cloudy 39 4 27 -2.6 62 62 Calm 30.12 1020 10 16 0.00 0.00
1:55 pm 13:55 Cloudy 39 4 28 -2.5 63 63 N 5 7 30.12 1020 10 16 0.00 0.00
2:15 pm 14:15 Cloudy 40 4.6 28 -2.2 62 62 N 3 6 30.09 1019 10 16 0.00 0.00
2:35 pm 14:35 Cloudy 41 4.9 29 -1.7 63 63 NNW 6 9 30.09 1019 10 16 0.00 0.00
2:55 pm 14:55 Cloudy 42 5.5 28 -2.1 58 58 N 5 7 30.09 1019 10 16 0.00 0.00
3:20 pm 15:20 Cloudy 42 5.6 29 -1.7 60 60 NNE 8 13 30.09 1019 10 16 0.00 0.00
3:35 pm 15:35 Mostly Cloudy 42 5.6 28 -2.2 58 58 N 6 9 30.09 1019 10 16 0.00 0.00
3:55 pm 15:55 Partly Cloudy 43 5.9 29 -1.8 58 58 Calm 30.09 1019 10 16 0.00 0.00
4:15 pm 16:15 Partly Cloudy 44 6.7 30 -0.9 59 59 N 7 11 30.09 1019 10 16 0.00 0.00
4:35 pm 16:35 Sunny 44 6.4 29 -1.5 57 57 ENE 8 13 30.09 1019 10 16 0.00 0.00
4:55 pm 16:55 Sunny 46 7.6 31 -0.6 56 56 Calm 30.09 1019 10 16 0.00 0.00
5:15 pm 17:15 Partly Cloudy 44 6.8 30 -1.3 57 57 ENE 6 9 30.09 1019 10 16 0.00 0.00
5:35 pm 17:35 Sunny 45 7.2 30 -1 56 56 E 5 7 30.09 1019 10 16 0.00 0.00
5:55 pm 17:55 Sunny 44 6.9 30 -1.3 56 56 ENE 8 13 30.12 1020 10 16 0.00 0.00
6:15 pm 18:15 Sunny 46 7.6 31 -0.7 56 56 E 3 6 30.12 1020 10 16 0.00 0.00
6:35 pm 18:35 Sunny 44 6.9 30 -1.1 57 57 ENE 6 9 30.12 1020 10 16 0.00 0.00
6:55 pm 18:55 Sunny 44 6.8 30 -1 58 58 NE 3 6 30.12 1020 10 16 0.00 0.00
7:15 pm 19:15 Sunny 43 6.3 29 -1.4 58 58 NNE 3 6 30.12 1020 10 16 0.00 0.00
7:35 pm 19:35 Sunny 42 5.8 30 -1.2 61 61 N 3 6 30.12 1020 10 16 0.00 0.00
7:55 pm 19:55 Clear 42 5.6 30 -1.1 62 62 N 3 6 30.12 1020 10 16 0.00 0.00
8:15 pm 20:15 Clear 42 5.5 31 -0.8 64 64 NNE 3 6 30.12 1020 10 16 0.00 0.00
8:35 pm 20:35 Clear 40 4.7 31 -0.4 70 70 N 5 7 30.18 1022 10 16 0.00 0.00
8:55 pm 20:55 Clear 39 4 31 -0.6 72 72 NNE 6 9 30.18 1022 10 16 0.00 0.00
9:15 pm 21:15 Clear 39 4 32 0 75 75 NNE 3 6 30.18 1022 10 16 0.00 0.00
9:35 pm 21:35 Clear 39 4 32 0 75 75 NNE 5 7 30.18 1022 10 16 0.00 0.00
9:55 pm 21:55 Clear 37 3 31 -0.3 79 79 NNE 5 7 30.21 1023 10 16 0.00 0.00
10:15 pm 22:15 Clear 37 2.6 31 -0.4 81 81 N 3 6 30.21 1023 10 16 0.00 0.00
10:35 pm 22:35 Clear 37 2.6 32 -0.1 83 83 NNE 3 6 30.21 1023 10 16 0.00 0.00
10:55 pm 22:55 Clear 36 2.3 32 -0.2 84 84 NNE 5 7 30.21 1023 10 16 0.00 0.00
11:15 pm 23:15 Clear 37 2.6 31 -0.3 81 81 Calm 30.21 1023 10 16 0.00 0.00
11:35 pm 23:35 Clear 35 1.6 31 -0.8 84 84 Calm 30.21 1023 10 16 0.00 0.00
11:55 pm 23:55 Clear 34 1.2 30 -0.9 86 86 NNE 3 6 30.21 1023 10 16 0.00 0.00

Powered by AerisWeather